This is the latest recevied weather packets stored in our database for station/object KO4APQ. If no packets are shown the sender has not sent any weather packets the latest 10 day(s).
| Time | Temp. | Humidity | Pressure | Rain* | Wind** | Luminosity | Snow |
|---|---|---|---|---|---|---|---|
| 1777778651 | 7.22° C | 92% | 1016.9 hPa | 0 mm | - | 0 W/m² | - |
| 1777778349 | 7.78° C | 92% | 1017.1 hPa | 0 mm | - | 0 W/m² | - |
| 1777778046 | 7.78° C | 91% | 1017 hPa | 0 mm | - | 0 W/m² | - |
| 1777777742 | 7.78° C | 91% | 1016.9 hPa | 0 mm | - | 0 W/m² | - |
| 1777777439 | 7.78° C | 91% | 1017 hPa | 0 mm | - | 0 W/m² | - |
| 1777777135 | 7.78° C | 91% | 1016.7 hPa | 0 mm | - | 0 W/m² | - |
| 1777776833 | 7.78° C | 90% | 1016.8 hPa | 0 mm | - | 0 W/m² | - |
| 1777776530 | 7.78° C | 89% | 1016.8 hPa | 0 mm | - | 0 W/m² | - |
| 1777776226 | 8.33° C | 88% | 1016.7 hPa | 0 mm | - | 0 W/m² | - |
| 1777775924 | 8.33° C | 89% | 1016.7 hPa | 0 mm | - | 0 W/m² | - |
| 1777775621 | 8.89° C | 88% | 1016.6 hPa | 0 mm | - | 0 W/m² | - |
| 1777775318 | 8.89° C | 88% | 1016.2 hPa | 0 mm | - | 0 W/m² | - |
| 1777775018 | 8.89° C | 87% | 1016.3 hPa | 0 mm | - | 0 W/m² | - |
| 1777774714 | 9.44° C | 87% | 1016.2 hPa | 0 mm | - | 0 W/m² | - |
| 1777774410 | 9.44° C | 88% | 1016 hPa | 0 mm | - | 0 W/m² | - |
| 1777774108 | 9.44° C | 88% | 1016 hPa | 0 mm | - | 0 W/m² | - |
| 1777773806 | 9.44° C | 86% | 1016.1 hPa | 0 mm | - | 0 W/m² | - |
| 1777773502 | 9.44° C | 87% | 1016.1 hPa | 0 mm | - | 0 W/m² | - |
| 1777772593 | 10° C | 86% | 1015.5 hPa | 0 mm | - | 0 W/m² | - |
| 1777771382 | 10.56° C | 81% | 1015.2 hPa | 0 mm | - | 0 W/m² | - |
| 1777769866 | 11.67° C | 77% | 1014.6 hPa | 0 mm | - | 0 W/m² | - |
| 1777769563 | 11.67° C | 77% | 1014.7 hPa | 0 mm | - | 0 W/m² | - |
| 1777769259 | 11.67° C | 72% | 1014.4 hPa | 0 mm | - | 0 W/m² | - |
| 1777768654 | 12.78° C | 74% | 1014.5 hPa | 0 mm | - | 0 W/m² | - |
| 1777768351 | 12.78° C | 75% | 1014.2 hPa | 0 mm | - | 0 W/m² | - |
* Rain latest hour (hover to see other rain measurements)
** Current wind speed in m/s (hover to see current wind gust speed)